Regional Weather Roundup
Issued by NWS Midland/Odessa, TX

Skip options and go directly to product.
Home | Oldest Version | Previous Version | Current Version | All | Graphics & Text | Save Text | Print | Product List | Glossary On

Skip product version selection by date and time.   
208
ASUS44 KMAF 211610
RWRMAF
MIDLAND AREA WEATHER ROUNDUP
NATIONAL WEATHER SERVICE MIDLAND TX
1000 AM CST FRI NOV 21 2014

...IN SOUTHWEST TEXAS AND SOUTHEAST NEW MEXICO...

CITY           SKY/WX    TMP DP  RH WIND       PRES   REMARKS
ALPINE         SUNNY     62  29  28 CALM      30.15R
ANDREWS        FAIR      52  37  56 SE3       30.06S
ARTESIA        NOT AVBL
BIG SPRING     CLOUDY    54  49  84 S8        30.10R
CARLSBAD       MOSUNNY   51  24  34 N10       30.05S
DRYDEN           N/A     54  53  97 E7        30.08R
FORT STOCKTON    N/A     58  32  37 SE9       30.06S
GUAD PASS      MOSUNNY   54  22  28 SW7       30.11S
HOBBS          SUNNY     57  19  23 CALM      30.06S
MARFA          MOSUNNY   57  34  41 S5        30.12S
MIDLAND AIRPK  CLOUDY    50  50 100 S6        30.08R FOG
MIDLAND INTL   CLOUDY    48  48 100 S7        30.07R FOG
ODESSA         CLOUDY    46  44  93 SE3       30.08R FOG
PECOS          PTSUNNY   46  33  61 N3        30.06R
PRESIDIO       FAIR      55  37  51 E3        30.06S
SEMINOLE       MOSUNNY   55  27  34 CALM      30.06R
SNYDER         CLOUDY    52  48  87 S9        30.08S
WINK             N/A     47  40  76 CALM      30.05S
$$
...OTHER STATIONS IN TEXAS...

CITY           SKY/WX    TMP DP  RH WIND       PRES   REMARKS
ABILENE        MOSUNNY   63  53  70 SW16      30.08R
AMARILLO       SUNNY     39  33  79 NW6       30.07R WCI  35
AUSTIN         CLOUDY    66  65  96 S9        30.11R
BROWNSVILLE    PTSUNNY   75  70  84 SE16      30.08S
CORPUS CHRISTI PTSUNNY   73  68  84 S10       30.09R
DALLAS FTW     CLOUDY    60  59  96 SE13      30.12R FOG
DEL RIO        FOG       61  60  97 CALM      30.07R VSB 1/4
EL PASO        MOSUNNY   50  23  34 CALM      30.06R
HOUSTON INT    LGT RAIN  64  63  94 SE12      30.17R FOG
LUBBOCK        CLOUDY    44  35  70 N6        30.06R
SAN ANGELO     PTSUNNY   64  56  75 SW13      30.08R
SAN ANTONIO    CLOUDY    68  65  90 S9        30.11R FOG
WACO           FOG       62  62 100 SE8       30.13R VSB 1
WICHITA FALLS  NOT AVBL
$$
...OTHER LOCATIONS IN NEW MEXICO...

CITY           SKY/WX    TMP DP  RH WIND       PRES   REMARKS
ALAMAGORDO     MOSUNNY   48  16  27 SW5       30.08R
ALBUQUERQUE    PTSUNNY   37  14  38 N8        30.08S WCI  31
CANNON AFB     MOSUNNY   45  30  56 S6        30.06R
CLOVIS         MOSUNNY   41  30  65 S5        30.06R WCI  38
HOLLOMAN AFB   MOSUNNY   49  17  28 SW2       30.06R
ROSWELL        SUNNY     45  25  45 N7        30.06S
RUIDOSO        SUNNY     48  16  27 S7        30.12S
SANTA FE       SUNNY     37  18  46 N12       30.09S WCI  29
TRUTH OR CONSE MOSUNNY   44  20  38 SE3       30.06F
TUCUMCARI      SUNNY     39  28  64 W5        30.05R WCI  36
$$

USA.gov is the U.S. government's official web portal to all federal, state and local government web resources and services.